Probability
6 5 2 1 1 2 1 0 0 1 2 3 3 3 4 3 1 0 0 0 0 0 0 0 0 0 0 0 0 0 0 0 0 0 0 0 0 0 0 0 0 0 0
6 5 4 3 3 4 2 0 0 0 1 2 3 4 5 4 2 1 0 0 0 0 0 0 0 0 0 0 0 0 0 0 0 0 0 0 0 0 0 0 0 0 0
5 5 5 5 5 4 2 0 0 0 0 2 4 5 5 4 3 1 0 0 0 0 0 0 0 0 0 0 0 0 0 0 0 0 0 0 0 0 0 0 0 0 0
5 5 6 5 4 3 1 0 1 1 0 1 3 4 4 3 2 1 0 0 0 0 0 0 0 0 0 0 0 0 0 0 0 0 0 0 0 0 0 0 0 0 0
6 4 4 5 4 3 1 1 1 2 1 1 3 3 3 3 1 0 0 0 0 0 0 0 0 0 0 0 0 0 0 0 0 0 0 0 0 0 0 0 0 0 0
7 4 2 3 3 3 2 1 1 2 2 2 3 3 3 2 1 0 0 0 0 0 0 0 0 0 0 0 0 0 0 0 0 0 0 0 0 0 0 0 0 0 0
5 3 1 2 2 2 2 1 0 1 1 1 3 3 3 2 1 0 0 0 0 0 0 0 0 0 0 0 0 0 0 1 1 1 1 1 1 1 1 1 1 1 1
2 1 0 1 1 1 1 0 0 0 1 1 2 4 3 2 1 2 1 0 0 0 0 1 1 1 1 1 1 0 0 1 2 2 2 2 2 2 2 2 2 2 2
0 0 0 0 0 0 0 1 2 3 3 4 4 4 4 3 3 3 2 1 0 0 1 2 2 2 2 2 2 1 1 1 1 2 2 2 2 3 3 3 3 3 3
2 2 1 0 1 1 1 2 5 6 6 6 5 5 4 3 3 3 2 1 0 0 1 2 3 3 3 3 3 3 2 1 0 1 1 1 1 1 2 3 3 3 3
4 4 2 1 1 1 2 4 6 8 7 6 5 5 4 4 3 3 2 1 0 1 1 2 3 3 3 3 3 3 3 2 1 0 0 0 0 0 1 2 2 1 2
6 6 4 3 2 3 4 5 7 9 8 6 4 5 6 5 3 3 2 1 1 2 2 3 3 3 3 3 3 3 3 3 3 2 1 1 0 0 0 1 1 1 1
9 9 8 6 6 6 6 6 8 9 8 6 5 5 6 5 4 3 2 1 2 4 4 4 4 3 3 3 3 3 3 4 5 5 4 2 1 0 0 0 1 2 2
10 10 10 9 9 8 7 7 8 8 8 8 8 7 6 6 4 3 3 3 4 5 5 4 4 4 3 3 3 3 4 5 6 7 6 4 2 1 0 0 1 2 3
12 13 13 12 11 9 8 8 8 7 10 12 12 10 8 6 5 4 4 6 6 5 4 3 3 3 3 3 3 4 5 6 7 7 6 3 2 1 0 0 1 2 2
17 18 18 17 16 13 11 10 9 8 11 13 14 13 11 11 9 8 8 9 8 5 3 2 1 1 3 3 3 3 4 5 6 6 4 2 1 0 0 0 0 1 1
19 19 20 21 20 16 12 10 9 9 10 11 12 14 15 16 15 14 13 12 10 8 5 4 2 2 2 2 2 2 3 4 5 5 4 2 1 1 1 1 1 0 0
18 18 19 19 18 14 10 10 10 9 9 9 9 12 15 17 17 16 14 13 12 11 10 8 7 5 3 1 1 1 2 3 4 4 4 4 4 3 2 2 2 1 1
17 17 16 15 12 8 8 10 12 11 9 7 7 9 13 14 14 13 13 13 13 13 13 12 11 8 5 2 0 1 3 5 5 5 5 4 4 3 2 3 3 3 2
16 16 14 10 6 5 6 10 13 13 9 7 6 8 10 11 11 11 11 11 12 13 14 13 11 10 8 4 1 1 5 6 6 5 5 3 2 2 1 2 3 3 3
15 14 11 8 4 4 5 9 12 11 8 6 7 7 7 7 7 8 8 9 11 12 14 12 10 9 8 5 2 2 4 7 7 6 5 3 1 1 0 1 2 2 2
12 10 8 7 5 4 7 8 8 7 6 6 6 5 5 5 5 5 6 7 9 12 13 13 12 12 10 7 4 1 2 5 6 6 6 3 1 0 0 0 1 1 1
8 6 5 5 5 6 7 6 4 4 5 5 4 4 4 4 5 5 6 7 9 10 12 14 15 16 14 9 5 2 1 2 3 5 5 2 1 0 0 0 0 0 0
4 4 4 4 6 6 6 4 2 3 4 4 3 3 4 5 5 6 7 9 9 11 12 14 15 16 14 11 7 5 2 1 2 3 3 2 1 1 1 1 1 1 0
4 4 5 5 7 6 4 3 2 2 3 3 3 4 5 6 6 5 7 8 8 9 10 11 12 12 11 9 7 6 4 3 3 3 3 3 2 2 2 2 2 1 1
5 5 5 6 7 6 4 2 2 2 3 3 3 4 5 6 6 5 5 6 6 6 7 7 9 10 9 7 6 4 4 4 3 3 3 3 3 3 3 3 3 1 0
Wind_Speed
6 5 5 5 5 4 4 4 3 2 2 1 1 1 1 0 0 0 1 1 2 2 2 2 2 2 2 2 2 2 1 1 1 1 1 1 1 0 1 1 0 0 1
5 6 6 5 5 5 4 4 3 3 3 2 2 1 1 1 1 0 0 1 2 2 2 2 2 2 2 2 2 2 1 0 1 2 1 1 2 1 1 0 0 0 0
10 8 7 7 6 6 6 6 5 4 4 3 2 2 2 2 1 1 0 0 1 2 2 2 2 2 2 2 2 2 3 1 0 1 2 2 1 1 1 1 0 0 0
9 9 9 8 8 8 6 6 5 4 3 4 3 3 2 1 1 1 0 0 1 1 1 2 2 2 1 2 2 2 2 2 1 1 1 1 2 1 1 1 1 1 1
10 10 10 10 9 7 7 6 5 4 4 4 4 3 2 2 1 1 1 1 1 0 0 1 2 2 1 2 1 2 2 2 2 2 1 1 1 1 1 1 1 1 1
11 10 9 8 7 6 6 5 5 4 4 4 4 4 4 3 2 1 1 0 0 1 1 1 1 1 1 1 2 2 2 2 2 2 2 2 2 2 2 2 1 1 1
11 10 10 9 8 8 7 6 6 5 4 4 4 4 4 4 4 3 2 1 0 0 0 0 1 1 1 1 1 1 1 2 2 2 2 2 2 2 2 2 2 1 1
10 10 10 10 9 9 8 7 7 6 5 5 4 3 4 3 2 3 2 2 1 1 1 1 1 1 1 1 1 1 1 1 2 2 2 2 2 2 3 3 3 1 1
10 10 10 10 9 9 9 8 8 6 6 5 4 4 4 3 3 3 3 2 2 1 1 1 1 1 1 1 1 1 1 1 1 1 1 1 1 2 2 2 3 3 2
8 8 8 8 8 8 7 7 7 7 5 5 5 4 4 3 3 3 3 2 2 1 1 1 1 1 1 1 1 1 0 1 0 1 1 1 1 1 1 2 2 2 3
7 7 6 7 6 6 6 6 6 5 5 5 5 4 4 3 3 3 3 2 2 2 2 1 1 1 1 1 1 1 1 1 0 0 1 1 1 1 1 1 2 2 2
5 5 6 6 6 6 5 6 6 5 5 5 5 4 4 3 3 3 2 2 2 2 2 2 2 1 1 1 1 1 1 1 1 1 1 1 1 1 1 1 1 2 2
5 5 5 5 6 6 6 6 5 5 4 4 4 4 4 4 3 3 2 2 2 2 2 2 2 2 1 1 1 2 1 1 1 1 1 1 1 1 1 1 1 1 2
6 5 5 5 5 5 5 5 5 4 5 5 5 5 4 4 3 3 2 2 2 2 2 2 2 2 2 2 2 2 2 1 1 1 1 2 2 2 2 2 2 2 2
5 5 5 4 4 4 5 5 5 5 5 5 5 5 4 4 3 3 3 2 2 2 2 2 1 1 2 2 2 2 2 2 2 1 2 2 2 3 3 2 3 3 2
5 5 5 5 5 5 5 4 5 5 5 5 5 4 4 4 4 3 3 3 2 2 2 2 2 2 2 2 3 3 2 2 2 2 2 2 2 2 1 2 4 4 4
6 6 5 5 5 5 5 5 4 4 4 4 3 3 4 4 3 3 3 3 3 2 2 2 2 2 3 3 3 3 2 2 2 2 2 2 2 1 1 1 1 2 3
6 5 5 4 4 4 5 4 4 4 4 4 3 3 4 4 3 3 3 3 2 2 2 2 2 2 3 3 3 3 3 2 3 3 3 3 2 2 2 1 1 1 2
5 4 5 5 5 5 5 5 4 4 4 4 4 4 4 4 4 4 3 2 2 2 3 2 2 3 4 3 3 3 2 2 3 3 3 3 3 3 3 3 2 2 2
3 3 4 4 5 4 5 6 4 4 3 4 4 4 4 4 4 3 3 2 2 3 2 2 3 3 4 4 4 4 2 3 3 3 3 4 4 4 5 4 4 3 3
4 5 5 4 4 4 6 5 4 4 4 3 3 3 3 4 3 3 3 2 2 2 2 3 3 4 4 5 5 5 3 4 3 3 3 3 5 5 6 5 5 5 4
4 5 5 3 3 4 5 5 4 3 2 3 2 2 2 2 2 3 2 2 3 3 3 3 3 3 3 4 5 6 6 5 4 4 3 3 5 6 6 5 5 5 3
4 3 4 4 2 3 4 4 3 2 3 3 2 2 2 2 2 3 3 2 2 2 2 2 3 3 2 3 5 5 6 6 4 3 4 4 5 4 4 5 5 4 3
3 3 4 4 3 2 3 3 3 3 4 3 3 2 2 2 2 2 2 3 3 3 3 3 3 3 2 2 2 2 2 3 4 3 3 3 3 3 3 3 3 3 3
2 3 3 3 3 2 2 2 2 4 3 3 2 2 2 2 2 2 2 3 4 4 4 4 4 3 4 4 4 3 3 3 3 2 1 1 1 1 2 2 2 2 3
3 3 2 2 2 2 2 2 2 4 4 3 3 2 2 2 2 2 1 2 3 4 6 6 5 4 5 5 5 5 4 4 3 2 2 2 2 3 3 3 3 3 3
Wind_Direction
197 181 179 173 166 164 164 163 160 161 135 117 119 115 126 101 87 190 191 174 160 150 148 148 139 149 159 173 167 145 133 134 127 93 18 3 11 322 238 247 236 256 260
186 183 179 176 173 171 171 169 176 168 161 159 150 153 146 148 160 211 255 177 156 155 165 157 159 162 157 149 149 140 137 150 132 134 108 1 353 348 355 63 140 192 135
193 190 185 184 178 181 182 190 190 177 176 161 126 97 72 58 57 41 331 288 157 161 153 156 164 168 164 171 176 167 164 171 176 154 154 160 234 313 345 360 177 178 187
192 189 189 189 191 194 185 188 184 181 183 166 155 147 144 154 193 195 217 28 106 155 162 162 167 170 164 174 189 174 171 159 185 186 185 186 170 170 312 343 340 295 272
191 190 192 194 194 189 183 187 179 182 186 180 168 156 151 161 149 112 97 55 34 44 157 159 159 168 174 186 185 168 175 173 180 183 170 165 150 165 184 266 313 337 291
191 190 188 185 188 182 182 179 177 190 187 182 176 170 169 160 142 137 135 71 32 28 28 130 143 165 175 188 193 188 182 184 181 181 178 177 177 188 184 207 243 276 298
187 185 182 182 186 185 185 180 179 191 185 183 185 182 179 168 166 169 174 159 133 93 270 142 146 151 175 186 170 169 193 191 189 196 201 203 211 190 174 176 196 224 282
186 186 186 186 189 189 185 182 184 191 183 181 184 181 173 168 175 176 171 172 186 203 186 154 147 151 162 173 152 155 197 192 205 209 201 207 221 205 192 183 172 192 252
184 183 183 185 186 186 187 184 183 186 184 182 177 173 170 170 174 169 164 168 181 183 159 150 140 141 150 158 150 168 209 175 193 207 202 212 230 210 207 199 185 183 214
178 178 180 183 183 184 182 177 180 185 183 176 179 177 173 175 167 154 159 168 174 159 134 134 136 127 148 151 138 160 194 155 222 212 189 223 246 222 200 196 199 197 196
174 171 175 178 174 171 170 170 174 174 177 176 171 165 166 165 156 161 174 175 165 157 153 155 153 159 189 185 164 197 187 183 260 267 197 242 241 226 221 199 194 195 187
151 154 159 156 157 160 162 167 168 173 181 175 163 163 160 156 160 169 174 168 168 170 170 166 170 185 187 185 180 214 219 204 224 259 250 272 262 239 218 193 188 189 189
136 131 136 148 156 160 161 163 168 167 163 157 155 160 165 168 175 177 170 166 169 169 173 170 181 189 184 187 195 199 203 205 221 230 235 256 232 232 214 197 196 189 169
145 143 150 154 159 163 158 157 159 151 151 153 159 172 183 182 180 176 167 170 173 174 181 184 192 193 193 194 197 194 201 215 237 239 238 241 226 221 209 201 197 172 154
147 156 161 160 159 153 155 157 157 154 153 156 165 180 179 171 166 164 166 165 171 184 182 180 195 197 199 207 196 197 202 215 241 258 259 256 247 230 211 200 188 172 165
166 166 165 160 166 165 162 155 163 163 153 161 174 174 168 168 170 173 168 164 177 179 169 189 203 213 230 217 198 189 199 211 221 245 262 273 269 268 235 202 189 181 179
174 174 175 172 173 171 162 164 167 155 151 162 167 168 170 173 179 179 171 181 189 187 191 209 213 225 241 227 210 202 193 210 224 232 241 258 266 255 254 250 192 198 200
176 174 169 163 160 152 148 145 141 144 156 165 170 170 172 179 175 174 187 198 192 192 210 220 221 233 255 242 226 215 206 223 236 234 228 231 244 237 213 192 177 212 233
171 168 169 158 144 138 134 130 138 148 157 172 178 180 180 181 180 190 195 197 194 209 217 216 219 237 260 250 226 194 204 232 247 246 238 232 237 237 195 179 197 228 259
136 141 141 130 135 140 134 133 145 151 172 185 184 178 173 172 184 194 199 193 190 208 214 230 236 237 247 250 230 200 207 234 252 259 255 242 235 224 199 197 202 225 245
131 129 127 130 143 143 138 144 156 186 197 174 161 162 166 173 182 180 190 180 193 214 222 238 246 246 248 250 235 213 209 224 234 244 252 251 237 225 215 210 218 227 223
119 126 126 128 128 139 146 153 184 201 166 144 151 160 163 175 173 172 188 182 185 209 229 241 257 257 252 244 236 222 219 219 225 239 243 248 241 234 228 222 230 227 217
135 132 133 131 128 151 158 170 195 157 140 140 163 172 168 182 178 180 190 188 191 204 236 240 250 264 262 250 241 234 230 226 231 248 249 245 243 241 237 234 226 216 211
142 136 135 149 173 186 176 182 169 153 155 168 182 179 184 209 209 195 198 204 210 209 223 236 247 257 260 253 245 242 237 233 236 248 251 233 226 232 242 241 229 223 218
146 143 154 181 196 191 192 182 164 158 169 182 191 201 210 213 218 217 219 221 223 212 215 230 229 233 249 247 237 221 223 222 224 217 225 212 213 230 247 251 245 232 221
144 141 156 181 193 184 196 193 172 170 174 190 202 207 210 213 213 211 257 258 244 250 241 239 236 242 243 246 234 228 230 226 200 181 216 229 231 235 240 245 252 245 236